星链-32346 (STARLINK-32346)

导读 | 豆包AI

STARLINK-32346是美国SpaceX公司于2024年11月7日发射的星链低轨卫星,属于全球星链星座组网的组成部分。星链项目旨在打造覆盖全球的卫星互联网星座,可为地面网络薄弱或偏远地区提供高速宽带接入服务,已累计发射数万颗卫星,持续拓展全球低轨卫星通信网络布局。

基本信息
目录编号:
61849
目录名称:
STARLINK-32346
国际标识:
2024-202E
轨道中心:
EARTH
卫星名称:
星链-32346
卫星全名:
星链-32346 (STARLINK-32346)
卫星状态:
在轨 (已飞行493 天)
发射日期:
2024-11-07 UTC
国别 :
美国 (US)
星等 :
--
轨道信息
数据来源 国际轨道数据
星历时间: 2026-03-15T01:07:22+0800
18小时前
查看轨道信息
半长轴: 6861.182km
偏心率: 0.000166
轨道倾角: 43.004°
近地点辐角 272.310°
升交点赤经 198.571°
平近点角 87.756°
近地点: 481.906km
远地点: 484.184km
周期: 94.267分钟
每日圈数: 15.275817
详细信息
固有亮度:
5
最大亮度:
2.5
卫星平台:
Starlink V1.0
覆盖范围:
全球
运营商:
太空探索技术公司
运营商所在国:
美国
制造商(研发单位):
太空探索技术公司
制造商所在国:
美国
使用方式:
暂无
卫星简介
Starlink 计划是 SpaceX 推出的全球卫星互联网项目,通过发射低轨道卫星,为全球尤其是偏远地区提供高速、低延迟的互联网服务。自 2019 年起,Starlink 已部署数千颗卫星,旨在缩小全球数字鸿沟,推动互联网普及。该项目还为军事、航空等行业提供通信支持,带来广泛经济效益。
2D轨道图
3D轨道图
轨道高度分析图
轨道倾角分析图
轨道综合分析图
查看轨道综合分析图